QPF
0.00 0.00 0.00 0.00 0.00 0.00 0.00 0.00 0.00 0.00 0.00 0.00 0.00 0.00 0.00 0.00 0.00 0.00 0.00 0.00 0.00 0.00 0.00 0.00 0.00 0.03 0.03 0.02 0.02 0.02 0.02 0.02 0.02 0.04 0.04 0.03 0.02 0.01 0.01 0.00 0.00 0.00 0.00
0.00 0.00 0.00 0.00 0.00 0.00 0.00 0.00 0.00 0.00 0.00 0.00 0.00 0.00 0.00 0.00 0.00 0.00 0.00 0.00 0.00 0.00 0.00 0.00 0.00 0.01 0.03 0.03 0.02 0.02 0.02 0.02 0.01 0.03 0.05 0.05 0.06 0.04 0.04 0.03 0.03 0.01 0.00
0.00 0.00 0.00 0.00 0.00 0.00 0.00 0.00 0.00 0.00 0.00 0.00 0.00 0.00 0.00 0.00 0.00 0.00 0.00 0.00 0.00 0.00 0.00 0.00 0.01 0.02 0.04 0.04 0.04 0.02 0.02 0.02 0.03 0.05 0.05 0.07 0.09 0.08 0.07 0.05 0.04 0.04 0.02
0.00 0.00 0.00 0.00 0.00 0.00 0.00 0.00 0.00 0.00 0.00 0.00 0.00 0.00 0.00 0.00 0.00 0.00 0.00 0.00 0.00 0.00 0.00 0.00 0.00 0.03 0.08 0.07 0.07 0.06 0.04 0.03 0.04 0.06 0.09 0.11 0.11 0.09 0.08 0.07 0.06 0.05 0.04
0.00 0.00 0.00 0.00 0.00 0.00 0.00 0.00 0.00 0.00 0.00 0.00 0.00 0.00 0.00 0.00 0.00 0.00 0.00 0.00 0.00 0.00 0.00 0.00 0.00 0.01 0.03 0.10 0.10 0.09 0.08 0.06 0.07 0.10 0.12 0.13 0.12 0.10 0.10 0.09 0.07 0.04 0.02
0.00 0.00 0.00 0.00 0.00 0.00 0.00 0.00 0.00 0.00 0.00 0.00 0.00 0.00 0.00 0.00 0.00 0.00 0.00 0.00 0.00 0.00 0.00 0.00 0.00 0.00 0.01 0.05 0.12 0.12 0.12 0.12 0.12 0.14 0.14 0.13 0.12 0.11 0.11 0.10 0.08 0.01 0.00
0.00 0.00 0.00 0.00 0.00 0.00 0.00 0.00 0.00 0.00 0.00 0.00 0.00 0.00 0.00 0.00 0.00 0.00 0.00 0.00 0.00 0.00 0.00 0.00 0.00 0.00 0.00 0.01 0.07 0.11 0.12 0.14 0.14 0.14 0.13 0.12 0.11 0.10 0.10 0.09 0.08 0.03 0.00
0.00 0.00 0.00 0.00 0.00 0.00 0.00 0.00 0.00 0.00 0.00 0.00 0.00 0.00 0.00 0.00 0.00 0.00 0.00 0.00 0.00 0.00 0.00 0.00 0.00 0.00 0.00 0.00 0.02 0.08 0.09 0.10 0.11 0.10 0.10 0.09 0.07 0.04 0.02 0.03 0.03 0.02 0.00
0.00 0.00 0.00 0.00 0.00 0.00 0.00 0.00 0.00 0.00 0.00 0.00 0.00 0.00 0.00 0.00 0.00 0.00 0.00 0.00 0.00 0.00 0.00 0.00 0.00 0.00 0.00 0.00 0.00 0.02 0.05 0.07 0.09 0.11 0.10 0.09 0.06 0.01 0.00 0.00 0.01 0.02 0.00
0.00 0.00 0.00 0.00 0.00 0.00 0.00 0.00 0.00 0.00 0.00 0.00 0.00 0.00 0.00 0.00 0.00 0.00 0.00 0.00 0.00 0.00 0.00 0.00 0.00 0.00 0.00 0.00 0.00 0.01 0.01 0.03 0.05 0.10 0.09 0.08 0.06 0.00 0.00 0.00 0.00 0.01 0.00
0.00 0.00 0.00 0.00 0.00 0.00 0.00 0.00 0.00 0.00 0.00 0.00 0.00 0.00 0.00 0.00 0.00 0.00 0.00 0.00 0.00 0.00 0.00 0.00 0.00 0.00 0.00 0.00 0.00 0.01 0.02 0.03 0.03 0.05 0.05 0.05 0.06 0.01 0.00 0.00 0.00 0.00 0.00
0.00 0.00 0.00 0.00 0.00 0.00 0.00 0.00 0.00 0.00 0.00 0.00 0.00 0.00 0.00 0.00 0.00 0.00 0.00 0.00 0.00 0.00 0.00 0.00 0.00 0.00 0.00 0.00 0.00 0.00 0.00 0.01 0.02 0.02 0.01 0.02 0.03 0.04 0.01 0.00 0.00 0.00 0.00
0.00 0.00 0.00 0.00 0.00 0.00 0.00 0.00 0.00 0.00 0.00 0.00 0.00 0.00 0.00 0.00 0.00 0.00 0.00 0.00 0.00 0.00 0.00 0.00 0.00 0.00 0.00 0.00 0.00 0.00 0.00 0.00 0.01 0.01 0.01 0.01 0.02 0.03 0.03 0.01 0.00 0.00 0.00
0.00 0.00 0.00 0.00 0.00 0.00 0.00 0.00 0.00 0.00 0.00 0.00 0.00 0.00 0.00 0.00 0.00 0.00 0.00 0.00 0.00 0.00 0.00 0.00 0.00 0.00 0.00 0.00 0.00 0.00 0.00 0.01 0.01 0.02 0.01 0.01 0.01 0.01 0.01 0.00 0.00 0.00 0.00
0.00 0.00 0.00 0.00 0.00 0.00 0.00 0.00 0.00 0.00 0.00 0.00 0.00 0.00 0.00 0.00 0.01 0.00 0.00 0.00 0.00 0.00 0.00 0.00 0.00 0.00 0.00 0.00 0.00 0.00 0.00 0.00 0.00 0.01 0.01 0.01 0.01 0.01 0.01 0.00 0.00 0.00 0.00
0.00 0.00 0.00 0.00 0.00 0.00 0.00 0.00 0.00 0.00 0.00 0.00 0.00 0.00 0.00 0.00 0.00 0.00 0.00 0.00 0.00 0.00 0.00 0.00 0.00 0.00 0.00 0.00 0.00 0.00 0.00 0.00 0.01 0.01 0.01 0.01 0.01 0.01 0.01 0.01 0.00 0.00 0.00
0.00 0.00 0.00 0.00 0.00 0.00 0.00 0.00 0.00 0.00 0.00 0.00 0.00 0.00 0.00 0.00 0.00 0.00 0.00 0.00 0.00 0.00 0.00 0.00 0.00 0.00 0.00 0.00 0.00 0.00 0.00 0.01 0.01 0.00 0.01 0.01 0.01 0.01 0.01 0.02 0.00 0.00 0.00
0.00 0.00 0.00 0.00 0.00 0.00 0.00 0.00 0.00 0.00 0.00 0.00 0.00 0.00 0.00 0.00 0.00 0.00 0.00 0.00 0.00 0.00 0.00 0.00 0.00 0.00 0.00 0.00 0.00 0.00 0.00 0.00 0.00 0.00 0.00 0.00 0.01 0.01 0.01 0.02 0.01 0.00 0.00
0.00 0.00 0.00 0.00 0.00 0.00 0.00 0.00 0.00 0.00 0.00 0.00 0.00 0.00 0.00 0.00 0.00 0.00 0.00 0.00 0.00 0.00 0.00 0.00 0.00 0.00 0.00 0.00 0.00 0.00 0.00 0.00 0.01 0.00 0.00 0.00 0.01 0.01 0.01 0.02 0.02 0.00 0.00
0.00 0.00 0.00 0.00 0.00 0.00 0.00 0.00 0.00 0.00 0.00 0.00 0.00 0.00 0.00 0.00 0.00 0.00 0.00 0.00 0.00 0.00 0.00 0.00 0.00 0.00 0.00 0.00 0.00 0.00 0.00 0.00 0.00 0.00 0.00 0.00 0.00 0.01 0.01 0.01 0.02 0.01 0.00
0.00 0.00 0.00 0.00 0.00 0.00 0.00 0.00 0.00 0.00 0.00 0.00 0.00 0.00 0.00 0.00 0.00 0.00 0.00 0.00 0.00 0.00 0.00 0.00 0.00 0.00 0.00 0.00 0.00 0.00 0.00 0.00 0.00 0.00 0.00 0.00 0.00 0.01 0.01 0.01 0.01 0.01 0.00
0.00 0.00 0.00 0.00 0.00 0.00 0.00 0.00 0.00 0.00 0.00 0.00 0.00 0.00 0.00 0.00 0.00 0.00 0.00 0.00 0.00 0.00 0.00 0.00 0.00 0.00 0.00 0.00 0.00 0.00 0.00 0.00 0.00 0.00 0.00 0.00 0.00 0.00 0.01 0.01 0.01 0.01 0.00
0.00 0.00 0.00 0.00 0.00 0.00 0.00 0.00 0.00 0.00 0.00 0.00 0.00 0.00 0.00 0.00 0.00 0.00 0.00 0.00 0.00 0.00 0.00 0.00 0.00 0.00 0.00 0.00 0.00 0.00 0.00 0.00 0.00 0.00 0.00 0.00 0.00 0.00 0.01 0.01 0.01 0.01 0.01
0.00 0.00 0.00 0.00 0.00 0.00 0.00 0.00 0.00 0.00 0.00 0.00 0.00 0.00 0.00 0.00 0.00 0.00 0.00 0.00 0.00 0.00 0.00 0.00 0.00 0.00 0.00 0.00 0.00 0.00 0.00 0.00 0.00 0.00 0.00 0.00 0.00 0.00 0.00 0.01 0.01 0.01 0.00
0.00 0.00 0.00 0.00 0.00 0.00 0.00 0.00 0.00 0.00 0.00 0.00 0.00 0.00 0.00 0.00 0.00 0.00 0.00 0.00 0.00 0.00 0.00 0.00 0.00 0.00 0.00 0.00 0.00 0.00 0.00 0.00 0.00 0.00 0.00 0.00 0.00 0.01 0.01 0.01 0.01 0.01 0.00
0.00 0.00 0.00 0.00 0.00 0.00 0.00 0.00 0.00 0.00 0.00 0.00 0.00 0.00 0.00 0.00 0.00 0.00 0.00 0.00 0.00 0.00 0.00 0.00 0.00 0.00 0.00 0.00 0.00 0.00 0.00 0.00 0.00 0.00 0.00 0.00 0.00 0.00 0.01 0.01 0.01 0.01 0.00
MSLP
1032.20 1032.16 1032.37 1032.43 1032.37 1032.29 1032.08 1031.95 1031.57 1031.12 1030.53 1029.73 1028.68 1027.87 1026.98 1026.14 1025.31 1024.49 1023.66 1022.85 1022.03 1021.19 1020.57 1019.85 1019.20 1018.53 1017.66 1016.93 1016.35 1015.55 1015.03 1015.05 1015.34 1015.20 1015.23 1015.50 1015.67 1015.78 1016.19 1016.47 1016.86 1017.19 1017.13
1032.70 1032.47 1032.87 1033.04 1032.89 1032.94 1032.77 1032.38 1032.05 1031.54 1030.91 1030.05 1029.09 1028.21 1027.37 1026.59 1025.75 1024.85 1024.08 1023.39 1022.60 1021.81 1021.06 1020.39 1019.57 1018.79 1018.02 1017.56 1016.82 1016.36 1015.83 1015.36 1014.97 1015.17 1015.70 1015.86 1015.81 1016.24 1016.46 1016.79 1017.11 1017.41 1017.56
1032.97 1032.99 1033.38 1033.60 1033.55 1033.56 1033.55 1033.00 1032.54 1032.03 1031.32 1030.38 1029.41 1028.55 1027.78 1026.95 1025.95 1025.13 1024.53 1023.94 1023.18 1022.49 1021.76 1021.09 1020.28 1019.53 1018.64 1017.74 1016.94 1016.36 1015.67 1015.49 1015.42 1015.75 1016.29 1016.06 1016.16 1016.33 1016.62 1016.99 1017.15 1017.80 1017.60
1033.44 1033.53 1033.99 1034.12 1034.16 1034.19 1033.94 1033.66 1033.16 1032.34 1031.41 1030.75 1029.90 1029.08 1028.29 1027.24 1026.01 1025.31 1024.60 1024.20 1023.55 1023.00 1022.29 1021.63 1020.94 1020.35 1019.52 1018.43 1017.67 1016.91 1016.24 1016.04 1015.80 1015.94 1015.83 1016.02 1015.98 1016.36 1016.61 1016.71 1017.41 1017.75 1017.72
1034.02 1034.25 1034.91 1034.83 1034.66 1034.74 1034.52 1034.08 1033.46 1032.63 1031.75 1031.24 1030.32 1029.50 1028.67 1027.30 1026.19 1025.41 1024.91 1024.43 1023.82 1023.27 1022.76 1022.08 1021.51 1020.88 1020.10 1019.04 1018.31 1017.56 1016.92 1016.32 1015.96 1015.94 1015.80 1015.89 1016.14 1016.34 1016.64 1016.79 1017.47 1017.64 1017.96
1034.56 1034.96 1035.39 1035.40 1035.21 1035.09 1034.85 1034.39 1033.74 1032.83 1031.97 1031.41 1030.69 1030.01 1029.09 1028.04 1026.69 1025.84 1025.17 1024.81 1024.30 1023.83 1023.23 1022.49 1021.84 1021.12 1020.16 1019.45 1018.70 1018.11 1017.56 1016.86 1016.25 1016.16 1016.13 1016.11 1016.20 1016.32 1016.77 1017.03 1017.29 1017.58 1017.88
1035.01 1035.44 1035.80 1035.81 1035.44 1035.34 1034.92 1034.51 1033.81 1032.88 1032.28 1031.64 1030.95 1030.35 1029.61 1028.73 1027.10 1026.30 1025.81 1025.53 1024.97 1024.47 1023.84 1023.17 1022.37 1021.80 1020.89 1019.67 1019.11 1018.45 1018.11 1017.54 1017.14 1016.65 1016.71 1016.59 1016.70 1016.66 1016.93 1017.18 1017.26 1017.42 1017.86
1035.32 1035.74 1036.05 1035.89 1035.68 1035.34 1035.09 1034.55 1033.85 1033.03 1032.30 1031.83 1031.15 1030.62 1029.98 1029.05 1027.48 1026.66 1026.31 1026.14 1025.60 1025.05 1024.45 1023.88 1023.28 1022.31 1021.29 1020.29 1019.65 1018.90 1018.41 1018.09 1017.73 1017.52 1017.28 1017.14 1017.25 1017.28 1017.19 1017.21 1017.51 1017.93 1018.40
1035.62 1035.80 1035.92 1035.81 1035.62 1035.24 1034.79 1034.48 1033.82 1033.23 1032.55 1031.94 1031.44 1031.00 1030.42 1029.74 1028.14 1027.15 1026.83 1026.48 1026.00 1025.63 1025.05 1024.49 1024.05 1022.99 1021.81 1020.68 1020.03 1019.35 1018.93 1018.77 1018.54 1018.11 1017.97 1017.97 1017.72 1017.54 1017.53 1017.62 1017.88 1018.11 1018.46
1035.12 1035.23 1035.45 1035.34 1035.09 1035.00 1034.90 1034.48 1034.10 1033.47 1032.95 1032.35 1031.80 1031.44 1030.94 1030.34 1029.00 1027.82 1027.29 1027.04 1026.43 1025.97 1025.58 1025.02 1024.31 1023.40 1022.09 1021.21 1020.62 1019.87 1019.49 1019.39 1019.14 1019.02 1018.75 1018.62 1018.51 1018.21 1018.36 1018.54 1018.32 1018.27 1018.68
1033.95 1034.53 1034.97 1034.82 1034.92 1034.88 1034.59 1034.26 1034.08 1033.57 1033.25 1032.74 1032.26 1031.85 1031.39 1030.87 1030.02 1028.46 1027.80 1027.50 1026.97 1026.54 1026.12 1025.46 1024.85 1023.87 1022.65 1021.68 1020.94 1020.35 1020.12 1019.82 1019.70 1019.63 1019.47 1019.22 1019.09 1019.17 1019.30 1019.59 1019.17 1019.05 1019.33
1033.72 1034.21 1034.95 1034.74 1034.81 1034.59 1034.50 1034.18 1033.98 1033.66 1033.39 1033.17 1032.67 1032.19 1031.70 1031.13 1030.33 1029.12 1028.29 1027.82 1027.36 1027.08 1026.69 1026.11 1025.44 1024.30 1023.13 1022.16 1021.49 1020.92 1020.57 1020.11 1020.05 1020.16 1020.13 1019.98 1019.97 1020.16 1020.27 1020.41 1020.12 1019.89 1019.96
1033.26 1034.17 1034.81 1034.68 1034.48 1034.49 1034.48 1034.50 1034.23 1033.98 1033.63 1033.39 1033.05 1032.65 1032.07 1031.29 1030.76 1029.51 1028.79 1028.25 1027.85 1027.42 1027.09 1026.42 1025.70 1024.61 1023.69 1022.90 1022.18 1021.70 1021.17 1020.91 1020.71 1020.75 1020.82 1020.84 1020.72 1020.52 1020.30 1020.26 1020.14 1020.30 1020.19
1033.21 1033.87 1034.29 1034.43 1034.26 1034.35 1034.28 1034.32 1034.29 1034.21 1033.89 1033.61 1033.25 1032.86 1032.33 1031.42 1030.50 1029.49 1028.99 1028.82 1028.40 1027.94 1027.86 1027.22 1026.00 1025.25 1024.48 1023.90 1023.23 1022.51 1022.08 1021.74 1021.33 1021.22 1021.36 1021.29 1021.15 1020.76 1020.54 1020.29 1020.21 1020.40 1020.45
1033.01 1033.56 1033.81 1033.99 1034.13 1034.55 1034.31 1034.19 1034.03 1034.05 1033.54 1033.30 1033.17 1032.75 1032.34 1031.49 1030.46 1029.66 1029.38 1029.34 1028.66 1028.42 1028.58 1027.98 1027.10 1026.48 1025.83 1025.22 1024.63 1023.97 1023.39 1022.60 1021.86 1021.88 1021.68 1021.49 1021.43 1021.28 1021.04 1020.73 1020.69 1020.67 1021.00
1032.80 1033.45 1033.82 1033.79 1034.06 1034.18 1034.56 1034.53 1033.86 1033.47 1033.28 1033.02 1032.73 1032.59 1032.60 1031.86 1030.69 1030.17 1030.15 1030.20 1029.37 1029.43 1029.89 1029.56 1028.84 1028.25 1027.69 1027.09 1026.41 1025.51 1024.69 1023.56 1022.87 1022.57 1022.18 1021.94 1022.01 1021.74 1021.70 1021.29 1021.19 1021.31 1021.48
1031.82 1032.67 1033.32 1033.87 1034.62 1034.70 1034.61 1034.91 1034.96 1034.10 1033.77 1033.61 1033.28 1032.90 1032.53 1032.25 1031.35 1030.89 1030.81 1031.04 1030.63 1030.90 1031.18 1030.89 1030.39 1029.76 1029.29 1028.58 1027.87 1026.97 1026.29 1025.12 1024.04 1023.39 1022.81 1022.56 1022.42 1022.16 1022.06 1021.86 1021.89 1021.88 1022.07
1032.35 1032.64 1033.38 1033.92 1034.16 1034.72 1035.03 1034.97 1035.12 1035.27 1035.05 1034.67 1034.01 1033.38 1033.20 1032.79 1032.14 1031.81 1031.55 1031.87 1031.88 1031.75 1032.19 1032.01 1031.53 1031.00 1030.44 1029.76 1029.01 1028.19 1027.47 1026.18 1025.15 1024.55 1023.84 1023.19 1022.96 1022.61 1022.35 1022.41 1022.52 1022.72 1022.74
1032.41 1033.26 1033.79 1034.41 1034.67 1035.03 1035.27 1035.59 1035.54 1035.66 1035.76 1035.80 1035.01 1034.14 1034.29 1033.44 1032.99 1032.74 1032.51 1033.09 1033.41 1033.25 1032.96 1032.80 1032.48 1032.02 1031.47 1030.82 1029.96 1029.28 1028.64 1027.41 1026.54 1025.61 1024.76 1024.02 1023.60 1023.16 1023.01 1023.09 1023.25 1023.30 1023.34
1032.40 1032.74 1033.54 1034.21 1034.84 1035.31 1035.49 1036.03 1036.37 1036.36 1036.20 1036.28 1036.13 1035.48 1034.83 1034.84 1034.56 1034.23 1034.02 1034.03 1033.86 1033.56 1033.35 1033.13 1032.84 1032.70 1032.41 1031.77 1031.06 1030.49 1029.58 1028.59 1027.67 1026.91 1026.28 1025.61 1024.85 1023.93 1023.77 1023.89 1023.99 1023.80 1023.82
1032.21 1033.09 1033.56 1033.78 1034.48 1035.24 1035.73 1036.02 1036.28 1036.52 1036.38 1036.36 1035.98 1035.47 1035.05 1035.12 1035.19 1035.10 1034.96 1034.85 1034.56 1034.05 1033.58 1033.30 1033.09 1033.13 1033.10 1032.57 1032.05 1031.48 1030.73 1029.87 1029.21 1028.48 1027.58 1027.08 1026.41 1025.56 1024.80 1024.45 1023.95 1024.00 1024.25
1031.54 1032.21 1033.29 1033.75 1033.71 1034.69 1035.06 1035.31 1035.75 1036.05 1035.99 1036.33 1035.53 1035.33 1035.28 1035.27 1035.17 1035.17 1035.15 1035.06 1034.88 1034.37 1033.75 1033.70 1033.14 1032.88 1032.92 1032.82 1032.30 1031.81 1031.36 1030.84 1030.02 1029.18 1028.71 1028.23 1027.39 1026.44 1025.43 1024.55 1024.45 1024.46 1024.80
1029.77 1031.10 1031.90 1033.07 1033.56 1034.02 1034.57 1034.88 1035.28 1035.59 1035.58 1035.35 1035.32 1035.21 1035.17 1035.25 1035.26 1035.16 1035.06 1034.60 1034.62 1034.32 1033.82 1033.54 1033.19 1032.69 1032.19 1032.06 1032.13 1032.07 1031.80 1030.92 1030.62 1030.20 1029.80 1029.22 1028.36 1027.41 1026.45 1025.52 1025.20 1025.20 1025.16
1030.54 1031.27 1031.55 1031.85 1032.97 1033.72 1034.32 1034.50 1034.74 1034.85 1034.89 1034.85 1034.82 1034.80 1034.82 1034.83 1034.99 1034.99 1034.52 1034.16 1033.98 1033.92 1033.71 1033.45 1033.27 1032.79 1032.24 1031.83 1031.41 1031.24 1031.23 1030.85 1030.50 1030.31 1030.31 1029.90 1028.96 1027.95 1027.06 1026.25 1025.69 1025.24 1025.13
1028.89 1030.04 1031.25 1031.51 1032.27 1032.93 1033.75 1033.92 1034.05 1034.20 1034.27 1034.23 1034.20 1034.27 1034.25 1034.35 1034.47 1034.54 1034.14 1034.02 1033.79 1033.75 1033.25 1032.94 1032.64 1032.54 1032.18 1031.63 1031.28 1030.83 1030.43 1030.43 1030.22 1029.79 1029.63 1029.39 1029.19 1028.48 1027.63 1026.94 1026.31 1025.53 1025.42
1028.84 1029.75 1030.48 1031.06 1031.78 1032.06 1032.78 1033.26 1033.38 1033.40 1033.49 1033.46 1033.51 1033.60 1033.71 1033.77 1033.76 1033.74 1033.72 1033.60 1033.35 1033.18 1032.86 1032.70 1032.39 1031.97 1031.74 1031.49 1031.02 1030.52 1030.12 1029.65 1029.16 1029.17 1029.45 1029.66 1029.30 1028.49 1028.01 1027.63 1026.93 1026.09 1025.83
Thickness
5362 5351 5336 5322 5310 5299 5293 5284 5277 5271 5266 5263 5263 5262 5263 5263 5264 5265 5268 5276 5286 5295 5302 5313 5324 5335 5349 5362 5373 5386 5399 5406 5408 5412 5414 5416 5420 5424 5425 5427 5427 5430 5436
5354 5346 5330 5315 5305 5294 5287 5280 5272 5266 5261 5257 5256 5256 5256 5255 5256 5258 5261 5264 5275 5285 5292 5302 5314 5325 5338 5350 5363 5374 5383 5393 5404 5409 5405 5409 5412 5414 5415 5418 5419 5421 5425
5349 5338 5322 5309 5299 5289 5280 5275 5268 5261 5255 5251 5250 5250 5248 5247 5247 5249 5251 5254 5262 5275 5283 5291 5301 5313 5326 5340 5354 5366 5379 5386 5392 5396 5396 5400 5404 5405 5409 5410 5413 5411 5416
5342 5331 5315 5304 5294 5284 5277 5271 5265 5259 5253 5246 5244 5242 5239 5239 5237 5239 5244 5246 5253 5264 5275 5282 5291 5300 5313 5328 5341 5354 5368 5377 5384 5387 5394 5397 5400 5401 5404 5407 5407 5405 5409
5335 5323 5305 5298 5288 5280 5274 5269 5263 5257 5251 5243 5239 5236 5233 5231 5227 5232 5236 5240 5245 5255 5265 5276 5283 5291 5303 5316 5327 5340 5353 5366 5375 5380 5388 5393 5395 5397 5401 5403 5403 5403 5404
5327 5313 5300 5291 5284 5276 5270 5265 5260 5255 5249 5242 5235 5229 5226 5223 5221 5225 5230 5234 5238 5245 5255 5267 5277 5285 5297 5307 5318 5329 5341 5354 5366 5373 5380 5387 5389 5392 5394 5397 5401 5402 5406
5320 5307 5295 5285 5280 5272 5266 5261 5256 5252 5246 5238 5232 5226 5221 5218 5221 5222 5225 5226 5230 5236 5245 5257 5269 5276 5288 5302 5310 5321 5330 5342 5351 5361 5368 5376 5380 5384 5388 5391 5396 5399 5401
5314 5302 5290 5283 5275 5269 5262 5257 5253 5250 5243 5237 5230 5224 5218 5217 5220 5220 5220 5220 5223 5227 5235 5245 5256 5269 5281 5292 5302 5313 5322 5331 5341 5348 5355 5364 5369 5375 5382 5387 5390 5391 5392
5308 5298 5288 5280 5273 5266 5260 5252 5250 5246 5241 5235 5229 5221 5216 5213 5216 5217 5216 5216 5218 5219 5226 5234 5245 5258 5274 5286 5294 5305 5314 5323 5331 5339 5344 5351 5360 5368 5374 5380 5384 5388 5391
5307 5298 5287 5281 5274 5264 5255 5250 5245 5242 5238 5233 5227 5219 5213 5209 5209 5210 5209 5209 5212 5214 5218 5228 5237 5250 5266 5278 5286 5297 5305 5313 5322 5330 5338 5342 5349 5360 5364 5369 5376 5384 5387
5309 5297 5286 5280 5271 5263 5256 5249 5242 5238 5232 5226 5222 5216 5210 5203 5200 5199 5198 5199 5203 5207 5210 5219 5230 5241 5255 5269 5281 5289 5296 5304 5312 5319 5328 5336 5343 5348 5353 5356 5366 5373 5377
5305 5294 5281 5276 5268 5262 5252 5246 5239 5234 5228 5221 5217 5212 5206 5201 5196 5194 5193 5194 5198 5202 5205 5210 5221 5234 5247 5259 5272 5282 5288 5298 5306 5311 5318 5325 5332 5336 5341 5345 5354 5362 5366
5302 5288 5275 5270 5266 5257 5248 5240 5233 5228 5223 5218 5213 5206 5202 5199 5195 5195 5195 5195 5196 5199 5203 5209 5215 5225 5236 5248 5260 5271 5280 5287 5295 5302 5308 5315 5322 5329 5335 5341 5349 5354 5360
5296 5283 5274 5267 5262 5253 5246 5237 5229 5222 5217 5213 5208 5203 5199 5197 5195 5196 5194 5193 5194 5195 5195 5198 5205 5213 5222 5233 5245 5258 5270 5276 5286 5294 5300 5307 5314 5322 5329 5336 5343 5347 5353
5290 5280 5273 5265 5257 5247 5243 5234 5228 5221 5216 5208 5203 5201 5197 5194 5194 5193 5189 5185 5186 5183 5178 5175 5178 5188 5200 5212 5226 5240 5254 5266 5277 5284 5293 5301 5307 5314 5321 5329 5334 5340 5343
5285 5276 5265 5261 5252 5246 5236 5228 5226 5220 5214 5209 5204 5199 5194 5190 5189 5186 5179 5174 5174 5167 5155 5147 5145 5154 5169 5185 5202 5221 5238 5255 5266 5274 5285 5293 5298 5306 5312 5321 5327 5331 5336
5285 5273 5263 5254 5243 5237 5232 5224 5214 5215 5210 5203 5198 5194 5190 5186 5184 5180 5173 5165 5162 5154 5143 5138 5131 5137 5149 5164 5182 5202 5219 5238 5253 5265 5276 5284 5292 5299 5306 5314 5318 5324 5328
5273 5266 5256 5247 5241 5231 5224 5219 5212 5204 5198 5196 5194 5190 5184 5180 5178 5174 5168 5161 5154 5148 5137 5135 5133 5135 5142 5153 5169 5189 5206 5226 5241 5251 5264 5275 5283 5293 5300 5305 5310 5314 5320
5266 5255 5246 5237 5231 5224 5218 5211 5205 5200 5194 5187 5186 5186 5180 5176 5172 5169 5165 5154 5145 5143 5139 5137 5137 5139 5144 5154 5167 5183 5197 5215 5227 5242 5254 5266 5275 5284 5291 5295 5299 5305 5312
5257 5251 5243 5233 5224 5217 5211 5203 5197 5193 5189 5182 5177 5175 5175 5170 5163 5159 5157 5153 5148 5145 5143 5141 5143 5144 5149 5156 5167 5179 5192 5206 5218 5229 5240 5250 5262 5275 5282 5286 5289 5298 5304
5251 5240 5233 5227 5221 5211 5203 5199 5191 5187 5185 5180 5177 5176 5177 5167 5160 5155 5152 5150 5150 5148 5148 5148 5148 5150 5155 5160 5168 5176 5185 5197 5205 5215 5227 5236 5246 5258 5269 5277 5287 5293 5297
5248 5238 5227 5221 5217 5207 5201 5195 5188 5183 5180 5176 5177 5174 5174 5166 5161 5157 5154 5152 5151 5151 5151 5151 5152 5155 5159 5164 5170 5176 5183 5190 5200 5209 5217 5224 5236 5249 5261 5274 5280 5285 5288
5248 5236 5226 5216 5211 5204 5196 5190 5185 5179 5176 5174 5171 5170 5166 5162 5158 5156 5156 5156 5153 5152 5151 5152 5154 5156 5160 5165 5169 5174 5181 5189 5196 5201 5207 5215 5226 5238 5249 5262 5269 5274 5281
5233 5225 5220 5214 5203 5197 5191 5188 5182 5178 5174 5172 5169 5167 5164 5162 5158 5157 5157 5157 5155 5153 5152 5153 5153 5155 5159 5163 5167 5173 5178 5185 5192 5197 5201 5207 5218 5230 5241 5252 5261 5269 5276
5234 5222 5211 5206 5199 5194 5185 5182 5179 5174 5171 5169 5167 5164 5163 5161 5158 5157 5157 5156 5155 5154 5154 5154 5154 5154 5156 5160 5164 5169 5173 5176 5183 5191 5199 5205 5211 5220 5231 5241 5251 5261 5268
5222 5214 5206 5199 5192 5189 5182 5178 5175 5172 5169 5167 5165 5163 5161 5159 5158 5156 5155 5155 5155 5155 5155 5155 5154 5154 5155 5156 5159 5163 5167 5172 5178 5181 5186 5194 5203 5212 5221 5229 5240 5251 5259